User: anonymous   Login
Location: Maiden
(35.5760°N, 81.2120°W)
Time: 10:53:46
(UTC-05:00)
Language:

Cosmos 1953 - Orbit

View from above orbital plane
View from above orbital plane
View from above satellite
View from above satellite

Ground track
Ground track

The orbit data is extracted from the following two-line orbital elements,

1 19210U 88050A   19015.93721608 -.00000121 +00000-0 -10447-4 0  9992
2 19210 082.5154 193.0167 0015165 089.9096 270.3869 15.05694508643636
Epoch (UTC): 15 January 2019 22:29:35
Eccentricity: 0.0015165
inclination: 82.5154°
perigee height: 539 km
apogee height: 560 km
right ascension of ascending node: 193.0167°
argument of perigee: 89.9096°
revolutions per day: 15.05694508
mean anomaly at epoch: 270.3869°
orbit number at epoch: 64363

The dashed part of the orbit path shows where the satellite is in the earth's shadow,  

DLR